Weather History for KJSO - October, 2012

Change the Weather History Date:

Wednesday, October 31, 2012

  Actual Average (KTYR) Record (KTYR)
Temperature  
Mean Temperature 66 °F 62 °F  
Max Temperature 79 °F 72 °F 86 °F (1977)
Min Temperature 52 °F 51 °F 26 °F (1917)
Degree Days  
Heating Degree Days 0 5  
Month to date heating degree days 72  
Since 1 July heating degree days 77  
Cooling Degree Days 0 2  
Month to date cooling degree days 129  
Year to date cooling degree days 2393  
Growing Degree Days 16 (Base 50)    
Moisture  
Dew Point 50 °F    
Average Humidity 63    
Maximum Humidity 96    
Minimum Humidity 33    
Precipitation  
Precipitation 0.00 in 0.15 in 2.95 in (1940)
Month to date precipitation 4.85  
Year to date precipitation 37.45  
Snow  
Snow 0.00 in - - ()
Month to date snowfall  
Since 1 July snowfall  
Since 1 September snowfall  
Snow Depth -    
Sea Level Pressure  
Sea Level Pressure 30.01 in    
Wind  
Wind Speed 6 mph (SW)    
Max Wind Speed 13 mph    
Max Gust Speed 18 mph    
Visibility 10 miles    
Events      
T = Trace of Precipitation, MM = Missing Value Source: NWS Daily Summary

Daily Weather History Graph

Daily Weather History Graph

Search for Another Location

Airport or City:

Trip Planner

Search our weather history database for the weather conditions in past years. The results will help you decide how hot, cold, wet, or windy it might be!

Date:

Astronomy

Oct. 31, 2012 Rise Set
Actual Time 7:36 AM CDT 6:31 PM CDT
Civil Twilight 7:11 AM CDT 6:56 PM CDT
Nautical Twilight 6:42 AM CDT 7:25 PM CDT
Astronomical Twilight 6:14 AM CDT 7:54 PM CDT
Moon 7:50 PM CDT (10/31) 9:12 AM CDT (10/31)
Length of Visible Light 11h 45m
Length of Day
10h 54m
Full, 97% of the Moon is Illuminated
Oct 31
Full
Nov 6
Last Quarter
Nov 13
New
Nov 20
First Quarter
Nov 28
Full

Hourly Weather History & Observations

Time (CDT) Temp. Dew Point Humidity Pressure Visibility Wind Dir Wind Speed Gust Speed Precip Events Conditions
12:15 AM 56.5 °F 42.4 °F 59% 30.00 in 10.0 mi South 6.9 mph - N/A   Clear
12:35 AM 55.9 °F 42.8 °F 61% 30.00 in 10.0 mi South 6.9 mph - N/A   Clear
12:55 AM 55.2 °F 43.0 °F 63% 30.00 in 10.0 mi South 6.9 mph - N/A   Clear
1:15 AM 54.5 °F 43.2 °F 66% 30.01 in 10.0 mi South 5.8 mph - N/A   Clear
1:35 AM 54.7 °F 43.2 °F 65% 30.01 in 10.0 mi South 5.8 mph - N/A   Clear
1:55 AM 55.4 °F 43.3 °F 64% 30.01 in 10.0 mi South 6.9 mph - N/A   Clear
2:15 AM 55.9 °F 43.7 °F 63% 30.01 in 10.0 mi South 6.9 mph - N/A   Clear
2:35 AM 55.8 °F 43.9 °F 64% 30.01 in 10.0 mi South 6.9 mph - N/A   Clear
2:55 AM 54.9 °F 44.4 °F 68% 30.01 in 10.0 mi South 6.9 mph - N/A   Clear
3:15 AM 54.5 °F 45.0 °F 70% 30.01 in 10.0 mi South 5.8 mph - N/A   Clear
3:35 AM 53.8 °F 45.5 °F 74% 30.00 in 10.0 mi South 5.8 mph - N/A   Clear
3:55 AM 54.0 °F 46.6 °F 76% 30.00 in 10.0 mi South 4.6 mph - N/A   Clear
4:15 AM 53.2 °F 46.8 °F 79% 30.00 in 10.0 mi South 5.8 mph - N/A   Clear
4:35 AM 52.9 °F 47.3 °F 81% 30.00 in 10.0 mi South 5.8 mph - N/A   Clear
4:55 AM 52.7 °F 47.5 °F 82% 30.00 in 10.0 mi South 5.8 mph - N/A   Clear
5:15 AM 52.2 °F 48.2 °F 86% 30.00 in 10.0 mi South 5.8 mph - N/A   Clear
5:35 AM 52.0 °F 48.6 °F 88% 30.01 in 10.0 mi South 5.8 mph - N/A   Clear
5:55 AM 52.7 °F 49.5 °F 89% 30.01 in 10.0 mi South 4.6 mph - N/A   Clear
6:15 AM 52.7 °F 50.0 °F 91% 30.01 in 10.0 mi South 5.8 mph - N/A   Clear
6:35 AM 52.7 °F 50.2 °F 91% 30.00 in 10.0 mi South 5.8 mph - N/A   Clear
6:55 AM 52.7 °F 50.5 °F 92% 30.01 in 10.0 mi South 4.6 mph - N/A   Clear
7:15 AM 52.2 °F 50.5 °F 94% 30.01 in 10.0 mi South 4.6 mph - N/A   Clear
7:35 AM 52.5 °F 51.1 °F 95% 30.02 in 10.0 mi SSW 5.8 mph - N/A   Clear
7:55 AM 52.3 °F 51.3 °F 96% 30.02 in 10.0 mi SSW 4.6 mph - N/A   Clear
8:15 AM 54.1 °F 52.7 °F 95% 30.02 in 10.0 mi SSW 5.8 mph - N/A   Clear
8:35 AM 54.9 °F 52.9 °F 93% 30.03 in 10.0 mi SSW 5.8 mph - N/A   Clear
8:55 AM 55.8 °F 53.6 °F 92% 30.03 in 10.0 mi SSW 6.9 mph - N/A   Clear
9:15 AM 57.9 °F 54.7 °F 89% 30.03 in 10.0 mi SW 6.9 mph - N/A   Clear
9:35 AM 60.1 °F 55.8 °F 86% 30.03 in 10.0 mi SW 6.9 mph - N/A   Clear
9:55 AM 63.3 °F 57.2 °F 80% 30.03 in 10.0 mi SW 9.2 mph 16.1 mph N/A   Clear
10:15 AM 65.1 °F 57.7 °F 77% 30.03 in 10.0 mi WSW 10.4 mph - N/A   Clear
10:35 AM 66.7 °F 58.1 °F 74% 30.03 in 10.0 mi WSW 5.8 mph 18.4 mph N/A   Clear
10:55 AM 68.0 °F 57.7 °F 70% 30.04 in 10.0 mi WSW 11.5 mph 18.4 mph N/A   Clear
11:15 AM 69.3 °F 57.2 °F 65% 30.04 in 10.0 mi West 10.4 mph 16.1 mph N/A   Clear
11:35 AM 70.9 °F 56.3 °F 60% 30.05 in 10.0 mi West 9.2 mph 16.1 mph N/A   Clear
11:55 AM 71.8 °F 55.4 °F 56% 30.04 in 10.0 mi WSW 12.7 mph 17.3 mph N/A   Clear
12:15 PM 73.0 °F 56.5 °F 56% 30.03 in 10.0 mi West 6.9 mph - N/A   Clear
12:35 PM 73.8 °F 56.1 °F 54% 30.02 in 10.0 mi WSW 3.5 mph - N/A   Clear
12:55 PM 74.7 °F 54.9 °F 50% 30.01 in 10.0 mi WSW 9.2 mph - N/A   Clear
1:15 PM 75.2 °F 54.7 °F 49% 30.01 in 10.0 mi SW 6.9 mph - N/A   Clear
1:35 PM 76.1 °F 54.5 °F 47% 30.01 in 10.0 mi West 6.9 mph - N/A   Clear
2:15 PM 77.5 °F 53.6 °F 43% 29.99 in 10.0 mi WNW 8.1 mph - N/A   Clear
2:35 PM 78.1 °F 53.1 °F 42% 29.99 in 10.0 mi West 6.9 mph - N/A   Clear
2:55 PM 78.3 °F 51.8 °F 40% 29.99 in 10.0 mi NW 5.8 mph - N/A   Clear
3:15 PM 78.8 °F 50.5 °F 37% 29.98 in 10.0 mi West 8.1 mph 18.4 mph N/A   Clear
3:35 PM 79.0 °F 50.4 °F 37% 29.98 in 10.0 mi NW 5.8 mph - N/A   Clear
3:55 PM 79.0 °F 48.0 °F 34% 29.98 in 10.0 mi NW 6.9 mph - N/A   Clear
4:15 PM 78.4 °F 47.1 °F 33% 29.99 in 10.0 mi NNW 6.9 mph - N/A   Clear
4:35 PM 78.3 °F 48.2 °F 35% 29.99 in 10.0 mi NW 5.8 mph - N/A   Clear
4:55 PM 77.9 °F 46.2 °F 33% 30.00 in 10.0 mi NNW 3.5 mph - N/A   Clear
5:15 PM 77.2 °F 46.9 °F 34% 29.99 in 10.0 mi North 3.5 mph - N/A   Clear
5:35 PM 76.1 °F 48.4 °F 38% 29.99 in 10.0 mi NNE 3.5 mph - N/A   Clear
5:55 PM 75.2 °F 48.7 °F 39% 30.00 in 10.0 mi Calm Calm - N/A   Clear
6:15 PM 73.6 °F 49.5 °F 43% 30.00 in 10.0 mi Calm Calm - N/A   Clear
6:35 PM 72.0 °F 49.6 °F 45% 30.00 in 10.0 mi Calm Calm - N/A   Clear
6:55 PM 70.7 °F 49.3 °F 47% 30.01 in 10.0 mi Calm Calm - N/A   Clear
7:15 PM 70.5 °F 48.9 °F 46% 30.01 in 10.0 mi Calm Calm - N/A   Clear
7:35 PM 67.3 °F 51.1 °F 56% 30.01 in 10.0 mi Calm Calm - N/A   Clear
7:55 PM 67.1 °F 50.4 °F 55% 30.01 in 10.0 mi Calm Calm - N/A   Clear
8:15 PM 67.8 °F 49.1 °F 51% 30.02 in 10.0 mi Calm Calm - N/A   Clear
8:35 PM 66.2 °F 49.1 °F 54% 30.02 in 10.0 mi Calm Calm - N/A   Clear
8:55 PM 65.3 °F 49.3 °F 56% 30.02 in 10.0 mi Calm Calm - N/A   Clear
9:15 PM 63.7 °F 49.8 °F 61% 30.02 in 10.0 mi Calm Calm - N/A   Clear
9:35 PM 64.6 °F 49.3 °F 58% 30.03 in 10.0 mi Calm Calm - N/A   Clear
9:55 PM 64.9 °F 49.1 °F 56% 30.02 in 10.0 mi Calm Calm - N/A   Clear
10:15 PM 64.4 °F 48.7 °F 57% 30.03 in 10.0 mi East 3.5 mph - N/A   Clear
10:35 PM 66.2 °F 48.2 °F 52% 30.03 in 10.0 mi Calm Calm - N/A   Clear
10:55 PM 66.0 °F 48.4 °F 53% 30.04 in 10.0 mi Calm Calm - N/A   Clear
11:15 PM 64.4 °F 48.9 °F 57% 30.04 in 10.0 mi Calm Calm - N/A   Clear
11:35 PM 65.1 °F 48.4 °F 55% 30.04 in 10.0 mi Calm Calm - N/A   Clear
11:55 PM 65.7 °F 48.0 °F 53% 30.04 in 10.0 mi Calm Calm - N/A   Clear